Location: Caltech
(34.1382°N, 118.1253°W)
Time: 07:52:02
(UTC-08:00)

NOSS 3-2 (A) - Visible Passes

Search period start: 25 February 2017 00:00
Search period end: 07 March 2017 00:00
Orbit: 883 x 1325 km, 63.4° (Epoch: 13 February)

Date Brightness Start Highest point End Pass type
(mag) Time Alt. Az. Time Alt. Az. Time Alt. Az.
25 Feb 6.4 04:53:11 10° SE 04:55:24 12° ESE 04:57:40 10° E visible
26 Feb 4.1 05:54:09 10° SSW 05:59:56 60° ESE 06:06:11 10° NE visible
27 Feb 5.2 05:09:38 10° S 05:14:50 33° ESE 05:20:20 10° NE visible
28 Feb 6.0 04:26:03 10° SSE 04:29:51 18° ESE 04:33:48 10° ENE visible
01 Mar 3.6 05:28:40 10° SSW 05:34:34 81° ESE 05:40:59 10° NNE visible
02 Mar 4.4 04:43:48 10° S 04:49:22 45° ESE 04:55:21 10° NE visible
03 Mar 5.4 03:59:39 10° SSE 04:04:20 25° ESE 04:09:16 10° ENE visible
03 Mar 3.8 05:49:03 10° SW 05:54:44 45° NW 06:00:55 10° NNE visible
04 Mar 6.0 03:16:54 10° SE 03:19:25 13° ESE 03:21:59 10° E visible
04 Mar 3.3 05:03:20 10° SW 05:09:16 76° WNW 05:15:42 10° NNE visible
05 Mar 3.8 04:20:07 22° S 04:23:58 62° ESE 04:30:15 10° NE visible
06 Mar 4.7 03:37:07 29° SE 03:38:51 34° ESE 03:44:26 10° NE visible
06 Mar 4.1 05:24:34 12° WSW 05:29:34 34° NW 05:35:26 10° NNE visible
